Location: La Brionne
(46.1728°N, 1.7849°E)
Time: 16:59:13
(UTC+00:00)

Cosmos 1544 Rocket - Pass Details

Date: 30 October 2021
Orbit: 603 x 632 km, 82.5° (Epoch: 27 November)

Event Time Altitude Azimuth Distance (km) Brightness Sun altitude
Rises 04:49:41 0° 344° (NNW) 2,899 6.8 -18.0°
Reaches altitude 10° 04:52:01 10° 337° (NNW) 1,984 5.9 -17.6°
Maximum altitude 04:56:08 41° 268° (W) 893 3.9 -16.9°
Drops below altitude 10° 05:00:11 10° 198° (SSW) 1,954 6.0 -16.2°
Sets 05:02:28 0° 191° (S) 2,849 6.9 -15.8°
